DW3195 Weather Reports


time (UTC)temp
F
wind
direction
speed
knots
gust
knots
rain 1hr
in
rain 24hr
in
rain mn
in
humidity
%
barometer
mb
20260507084006 48 268 0.9 2.6 0.00 1.34 0.01 98 921.6
20260507083005 48 214 0.9 4.3 0.00 1.34 0.01 98 921.5
20260507081505 48 296 0.9 1.7 0.00 1.34 0.01 98 921.3
20260507081005 48 305 0.9 1.7 0.00 1.34 0.01 98 921.1
20260507080005 48 246 0.9 4.3 0.00 1.34 0.01 98 921.2
20260507074506 49 247 0.9 6.1 0.00 1.34 0.01 98 921.6
20260507074005 49 224 1.7 2.6 0.00 1.34 0.01 98 921.5
20260507073005 49 350 0.9 7.8 0.00 1.34 0.01 98 921.5
20260507071505 50 252 0.0 1.7 0.00 1.34 0.01 98 921.5
20260507071005 50 335 0.9 1.7 0.00 1.34 0.01 98 921.5
20260507070505 50 262 0.9 1.7 0.00 1.34 0.01 98 921.5
20260507070009 50 205 0.9 5.2 0.00 1.34 0.01 98 921.7
20260507064505 50 261 0.9 2.6 0.00 1.34 0.01 98 921.8
20260507064004 50 265 0.9 2.6 0.00 1.34 0.01 98 921.7
20260507063505 50 274 1.7 4.3 0.00 1.34 0.01 98 921.8
20260507063005 50 255 0.9 2.6 0.00 1.34 0.01 98 921.8
20260507061505 50 330 0.0 4.3 0.00 1.34 0.02 98 921.6
20260507060005 51 211 1.7 5.2 0.01 1.34 0.02 98 922.0
20260507054504 51 180 1.7 5.2 0.02 1.34 0.02 98 921.6
20260507053005 52 209 1.7 6.1 0.02 1.34 0.02 98 921.5
20260507051505 53 294 0.9 1.7 0.01 1.34 0.01 98 921.7
20260507051004 53 259 0.9 2.6 0.01 1.34 0.01 98 921.6
20260507050505 53 294 0.0 1.7 0.01 1.33 0.01 98 921.7
20260507050005 53 287 1.7 2.6 0.01 1.33 0.01 98 921.8
20260507044504 53 211 0.9 2.6 0.00 1.33 0.00 98 922.1
20260507043504 53 277 2.6 4.3 0.00 1.32 0.00 98 922.2
20260507043004 53 250 1.7 7.0 0.00 1.32 0.00 98 922.4
20260507041504 54 232 3.5 7.0 0.00 1.32 0.00 98 922.3
20260507041004 54 268 2.6 4.3 0.00 1.32 0.00 98 922.1
20260507040507 54 226 2.6 6.1 0.00 1.32 0.00 98 921.5
20260507040006 54 305 1.7 5.2 0.04 1.33 0.00 98 921.3
20260507034507 54 7 2.6 5.2 0.04 1.33 1.22 98 920.6
20260507034006 54 352 4.3 7.0 0.04 1.33 1.22 98 920.7
20260507033507 54 345 2.6 4.3 0.04 1.33 1.22 98 920.7
20260507033006 54 288 2.6 4.3 0.04 1.33 1.22 98 921.1
20260507031505 54 327 0.0 0.9 0.05 1.33 1.22 97 921.5
20260507030506 54 343 1.7 2.6 0.06 1.33 1.22 97 921.5
20260507030006 54 343 0.9 2.6 0.12 1.28 1.17 97 921.6
20260507024506 54 76 0.9 2.6 0.14 1.28 1.17 96 922.3
20260507024006 54 296 0.9 2.6 0.14 1.28 1.17 96 922.5
20260507023506 54 280 0.9 1.7 0.13 1.28 1.17 96 922.7
20260507023006 54 292 0.0 1.7 0.20 1.28 1.17 96 922.8
20260507021506 54 302 1.7 4.3 0.20 1.27 1.16 96 922.9
20260507021006 54 259 1.7 6.1 0.20 1.27 1.16 96 922.7
20260507020506 54 254 1.7 5.2 0.20 1.27 1.16 96 922.8
20260507020006 54 177 1.7 6.1 0.09 1.16 1.05 96 922.7
20260507014005 55 349 1.7 4.3 0.22 1.15 1.04 96 922.5
20260507013506 55 279 1.7 4.3 0.22 1.15 1.04 96 922.4
20260507013006 55 220 1.7 4.3 0.15 1.08 0.97 96 922.4
20260507011505 56 231 0.0 2.6 0.12 1.08 0.97 95 922.4
20260507011006 56 255 1.7 7.8 0.11 1.07 0.96 95 922.1
20260507010505 56 233 2.6 5.2 0.29 1.07 0.96 95 921.9
20260507010006 57 100 0.9 6.1 0.29 1.07 0.96 95 921.0
20260507003505 58 305 0.0 0.9 0.16 0.93 0.82 93 920.7
20260507001505 59 282 0.9 2.6 0.19 0.93 0.85 92 920.7
20260507001005 59 292 2.6 6.1 0.19 0.93 0.85 92 920.8
20260507000505 60 340 4.3 7.8 0.01 0.75 0.67 91 920.9
20260506234506 63 340 0.0 1.7 0.00 0.75 0.66 88 920.7
20260506233505 63 317 0.9 2.6 0.00 0.75 0.66 88 920.8
20260506233006 63 319 0.9 7.0 0.00 0.75 0.66 87 920.8
20260506231005 64 294 3.5 7.8 0.00 0.75 0.66 85 920.9
20260506230505 64 286 2.6 7.0 0.00 0.75 0.66 85 920.9
20260506224506 64 297 4.3 7.0 0.00 0.75 0.66 84 920.9
20260506224006 64 286 4.3 10.4 0.00 0.75 0.66 84 920.9
20260506223505 64 297 4.3 7.8 0.00 0.75 0.66 84 920.8
20260506223005 64 315 4.3 8.7 0.00 0.75 0.66 84 920.6
20260506221005 64 301 3.5 7.0 0.01 0.75 0.66 85 920.8
20260506220505 64 327 2.6 7.8 0.01 0.75 0.66 85 920.9
20260506220005 64 309 3.5 7.8 0.01 0.75 0.66 85 920.9
20260506214505 64 311 4.3 6.1 0.01 0.74 0.65 84 920.9
20260506214005 64 288 2.6 6.1 0.01 0.74 0.65 85 920.8
20260506213505 64 273 4.3 7.0 0.01 0.74 0.65 84 920.8
20260506213005 64 320 2.6 7.8 0.01 0.74 0.65 85 920.7
20260506211504 64 305 4.3 7.8 0.00 0.73 0.64 84 920.9
20260506210005 64 297 4.3 11.3 0.00 0.73 0.64 83 920.7
20260506204505 65 291 6.1 12.2 0.00 0.73 0.64 82 920.6
20260506204005 65 305 4.3 7.8 0.00 0.73 0.64 83 920.5
20260506203504 65 317 3.5 7.8 0.00 0.73 0.64 83 920.5
20260506203005 65 294 2.6 7.8 0.00 0.73 0.64 83 920.6
20260506201504 65 290 4.3 10.4 0.00 0.73 0.64 83 920.5
20260506201005 65 304 4.3 8.7 0.00 0.73 0.64 83 920.6
20260506200504 64 282 4.3 8.7 0.00 0.73 0.64 84 920.7
20260506200005 64 333 5.2 8.7 0.00 0.73 0.64 84 920.8
20260506194504 64 304 5.2 11.3 0.00 0.73 0.64 86 920.8
20260506193504 64 283 2.6 8.7 0.00 0.73 0.64 87 920.7
20260506193005 63 313 2.6 7.8 0.00 0.73 0.64 87 920.7
20260506191505 63 276 4.3 7.8 0.00 0.73 0.64 88 920.6
20260506191005 63 300 4.3 7.0 0.00 0.73 0.64 87 920.7
20260506190504 63 267 4.3 7.0 0.00 0.73 0.64 88 920.7
20260506190006 63 256 4.3 8.7 0.00 0.73 0.64 89 920.9
20260506184506 63 268 5.2 8.7 0.00 0.73 0.64 87 920.6
20260506184007 63 297 4.3 8.7 0.00 0.73 0.64 88 920.7
20260506183506 63 276 6.1 8.7 0.00 0.73 0.64 87 920.6
20260506183006 63 304 5.2 13.0 0.00 0.73 0.64 88 920.6
20260506180506 63 307 2.6 6.1 0.00 0.73 0.64 88 920.7
20260506180006 63 273 5.2 11.3 0.00 0.73 0.67 88 920.7
20260506174506 62 325 4.3 10.4 0.00 0.73 0.67 89 920.7
20260506174006 62 272 4.3 7.0 0.01 0.73 0.67 90 920.6
20260506173506 62 329 3.5 7.0 0.01 0.73 0.67 91 920.8
20260506173006 61 300 4.3 8.7 0.01 0.73 0.67 92 920.9
20260506171506 61 303 3.5 6.1 0.02 0.73 0.67 93 921.1
20260506171006 61 291 2.6 8.7 0.02 0.73 0.67 93 921.2
20260506170505 60 314 3.5 7.8 0.02 0.73 0.67 93 921.1
20260506170006 60 307 2.6 13.0 0.02 0.73 0.67 93 921.1
20260506164506 60 280 4.3 12.2 0.09 0.73 0.67 94 921.0
20260506164006 60 259 3.5 7.8 0.09 0.72 0.65 94 921.4
20260506163506 60 300 3.5 11.3 0.09 0.72 0.65 94 921.6
20260506163006 60 302 5.2 12.2 0.26 0.72 0.65 94 921.6
20260506161506 60 300 4.3 10.4 0.26 0.70 0.65 96 921.6
20260506161005 60 284 2.6 6.1 0.26 0.70 0.65 96 921.9
20260506160506 60 341 3.5 8.7 0.26 0.70 0.65 96 922.2
20260506160006 60 289 2.6 8.7 0.26 0.70 0.65 95 922.3
20260506154505 59 292 3.5 7.8 0.21 0.62 0.58 95 922.1
20260506154005 59 292 2.6 12.2 0.19 0.61 0.56 95 922.0
20260506153505 59 275 5.2 8.7 0.19 0.61 0.56 95 921.8
20260506153005 59 315 3.5 7.8 0.03 0.44 0.39 94 922.0
20260506151006 60 279 4.3 7.8 0.08 0.44 0.39 93 921.5
20260506150505 60 292 6.1 11.3 0.08 0.44 0.39 92 921.3
20260506150005 60 283 3.5 7.8 0.09 0.43 0.38 92 921.2
20260506144006 59 286 4.3 11.3 0.10 0.42 0.37 93 921.1
20260506143506 59 294 5.2 8.7 0.11 0.42 0.37 93 921.1
20260506143006 59 288 4.3 11.3 0.09 0.40 0.36 93 921.0
20260506141505 59 298 5.2 8.7 0.07 0.36 0.32 92 921.0
20260506141005 59 313 4.3 7.8 0.07 0.36 0.31 92 921.0
20260506140505 59 278 5.2 11.3 0.07 0.36 0.31 92 921.0
20260506140005 59 293 3.5 8.7 0.06 0.34 0.29 92 920.9
20260506134505 58 284 4.3 11.3 0.07 0.31 0.27 91 921.0
20260506134005 58 301 4.3 8.7 0.09 0.31 0.27 91 920.9
20260506133505 58 284 5.2 7.8 0.10 0.31 0.27 91 920.9
20260506133006 58 273 4.3 11.3 0.10 0.31 0.26 92 921.0
20260506131505 58 297 5.2 10.4 0.12 0.29 0.25 92 920.8
20260506131005 58 283 5.2 10.4 0.13 0.29 0.25 92 920.8
20260506130505 57 285 5.2 11.3 0.14 0.28 0.25 93 920.7
20260506124505 58 293 5.2 8.7 0.13 0.22 0.19 92 920.9
20260506121504 59 291 3.5 6.1 0.08 0.16 0.13 87 920.1
20260506121005 59 294 4.3 7.8 0.07 0.15 0.12 86 920.1
20260506120505 59 294 3.5 10.4 0.06 0.14 0.11 84 920.3
20260506120005 60 297 5.2 8.7 0.05 0.12 0.09 82 920.3
20260506114504 61 309 1.7 7.0 0.03 0.09 0.06 78 920.0
20260506114005 61 275 3.5 8.7 0.03 0.09 0.06 77 919.8
20260506113505 61 324 2.6 6.1 0.03 0.09 0.06 76 919.9
20260506113004 62 279 3.5 10.4 0.03 0.09 0.06 75 919.7
20260506111505 62 274 4.3 7.8 0.01 0.08 0.05 70 919.4
20260506111005 62 280 3.5 11.3 0.01 0.08 0.05 69 919.4
20260506110505 62 294 2.6 6.1 0.00 0.08 0.05 69 919.3
20260506110004 62 282 4.3 10.4 0.01 0.07 0.04 68 919.2
20260506104504 61 295 5.2 8.7 0.02 0.06 0.03 69 919.0
20260506104005 61 300 2.6 6.1 0.02 0.06 0.03 70 919.0
20260506101505 60 292 2.6 7.8 0.04 0.06 0.04 72 918.8
20260506101005 60 307 2.6 7.8 0.04 0.06 0.04 72 918.7
20260506100005 60 302 4.3 10.4 0.03 0.04 0.03 74 918.9
20260506094506 61 286 3.5 8.7 0.01 0.03 0.01 72 918.8
20260506094006 62 313 4.3 10.4 0.01 0.03 0.01 70 918.8
20260506093506 62 311 2.6 7.0 0.00 0.02 0.00 66 918.7
20260506091506 63 323 4.3 10.4 0.00 0.02 0.00 62 918.9
20260506091006 63 314 5.2 8.7 0.00 0.02 0.00 61 918.7
20260506090506 63 303 2.6 11.3 0.00 0.02 0.00 61 918.9